Hourly Data Report for August 01, 2004

All times are specified in Local Standard Time (LST). Add 1 hour to adjust for Daylight Saving Time where and when it is observed.

TORONTO CITY
ONTARIO

43°40'00.000" N
79°24'00.000" W
112.50 m
6158355
71508
XTO

Download Data

Hourly Data (August 2004)
Hourly Data Report for August 1, 2004
TIME Temp Definition
°C
Dew Point Definition
°C
Rel Hum Definition
%
Wind Dir Definition
10's deg

Wind Spd Definition
km/h
Visibility Definition
km
Stn Press Definition
kPa
Hmdx Definition


Wind Chill Definition


Weather Definition


00:00 21.6 20.8 95 LegendMM LegendMM LegendMM 100.02 30   LegendNANA
01:00 21.3 20.4 95 LegendMM LegendMM LegendMM 100.07 29   LegendNANA
02:00 20.8 18.0 84 LegendMM LegendMM LegendMM 100.10 27   LegendNANA
03:00 19.9 17.2 84 LegendMM LegendMM LegendMM 100.16     LegendNANA
04:00 19.2 16.7 85 LegendMM LegendMM LegendMM 100.22     LegendNANA
05:00 18.5 14.8 79 LegendMM LegendMM LegendMM 100.27     LegendNANA
06:00 17.9 14.1 78 LegendMM LegendMM LegendMM 100.33     LegendNANA
07:00 18.6 14.3 76 LegendMM LegendMM LegendMM 100.38     LegendNANA
08:00 19.7 14.6 72 LegendMM LegendMM LegendMM 100.42     LegendNANA
09:00 21.2 15.1 68 LegendMM LegendMM LegendMM 100.45 25   LegendNANA
10:00 22.8 14.0 58 LegendMM LegendMM LegendMM 100.47 26   LegendNANA
11:00 24.6 15.2 56 LegendMM LegendMM LegendMM 100.48 29   LegendNANA
12:00 23.5 16.5 65 LegendMM LegendMM LegendMM 100.46 28   LegendNANA
13:00 24.1 17.0 65 LegendMM LegendMM LegendMM 100.44 29   LegendNANA
14:00 25.9 16.2 55 LegendMM LegendMM LegendMM 100.39 31   LegendNANA
15:00 25.9 15.8 54 LegendMM LegendMM LegendMM 100.36 30   LegendNANA
16:00 25.5 15.4 54 LegendMM LegendMM LegendMM 100.33 30   LegendNANA
17:00 25.4 14.3 50 LegendMM LegendMM LegendMM 100.33 29   LegendNANA
18:00 24.9 14.4 52 LegendMM LegendMM LegendMM 100.29 29   LegendNANA
19:00 24.1 14.4 55 LegendMM LegendMM LegendMM 100.28 28   LegendNANA
20:00 22.8 14.7 60 LegendMM LegendMM LegendMM 100.29 27   LegendNANA
21:00 22.6 18.7 79 LegendMM LegendMM LegendMM 100.32 29   LegendNANA
22:00 21.8 19.2 85 LegendMM LegendMM LegendMM 100.28 29   LegendNANA
23:00 21.1 19.3 89 LegendMM LegendMM LegendMM 100.30 28   LegendNANA

Notes on Data Quality.

Legend

  • E = Estimated
  • M = Missing
  • NA = Not Available
Date modified: